Regional Weather Roundup
Issued by NWS

Home | Current Version | Previous Version | Graphics & Text | Print | Product List | Glossary On
Versions: 1 2 3 4 5 6 7 8 9 10 11 12 13 14 15 16 17 18 19 20 21 22 23 24 25 26 27
000
ASUS45 KBOU 242207
RWRCO

WEATHER ROUNDUP FOR COLORADO
NATIONAL WEATHER SERVICE DENVER/BOULDER CO
300 PM MST TUE JAN 24 2017

NOTE: "FAIR" INDICATES FEW OR NO CLOUDS BELOW 12000 FEET WITH NO
SIGNIFICANT WEATHER AND/OR OBSTRUCTIONS TO VISIBILITY.

COZ001>005-013-030-031-242300-
...NORTHWEST COLORADO...

CITY           SKY/WX    TMP DP  RH WIND       PRES   REMARKS
CRAIG          CLOUDY    22  11  62 NW8       29.71R WCI  12
HAYDEN         FAIR      19  10  68 W14       29.68R WCI   6
MEEKER         CLOUDY    25  19  78 SE3       29.68R
MOUNT WERNER   NOT AVBL
STEAMBOAT SPGS CLOUDY    21  15  76 SW16      29.65R WCI   7
WALDEN           N/A     14  10  85 N17       29.59R WCI  -3
$$

COZ006>008-011-242300-
...WEST CENTRAL VALLEYS...

CITY           SKY/WX    TMP DP  RH WIND       PRES   REMARKS
GRAND JUNCTION PTSUNNY   36  21  54 W12       29.70R
MONTROSE       CLOUDY    32  23  69 NW14      29.69R WCI  22
EAGLE          FLURRIES  28  19  69 SW8       29.65R WCI  20
RIFLE          CLOUDY    34  19  54 W12       29.67R WCI  25
DELTA          FAIR      40  19  41 W23G31    29.66R
NUCLA          CLOUDY    32  23  69 W16G22    29.73R WCI  21
$$

COZ017>023-064>068-242300-
...SOUTHWEST COLORADO...

CITY           SKY/WX    TMP DP  RH WIND       PRES   REMARKS
DURANGO        LGT SNOW  27  21  78 SW16G24   29.67R WCI  15
CORTEZ         CLOUDY    30  28  92 S17       29.70S WCI  18
PAGOSA SPRINGS LGT SNOW  24  22  90 SW12G18   29.64R VSB 1   WCI  13
TELLURIDE      NOT AVBL
WOLF CREEK PAS CLOUDY     7   5  92 S25G35    29.55R WCI -15
$$

COZ009-010-012-014-032>034-037-058>063-242300-
...CENTRAL COLORADO...

CITY           SKY/WX    TMP DP  RH WIND       PRES   REMARKS
ASPEN          CLOUDY    23  18  81 VRB3      29.58R
BUENA VISTA    PTSUNNY   28   9  44 NW8       29.53R WCI  20
COPPER MTN     HVY SNOW  12   5  73 MISG      29.48R VSB<1/4
BERTHOUD PASS  NOT AVBL
COTTONWOOD PAS PTSUNNY   23   9  54 NW3       29.51R
GUNNISON       FAIR      21  15  78 NE8       29.60R WCI  11
KREMMLING      PTSUNNY   28  14  54 N6        29.62R WCI  22
LEADVILLE      FAIR      15   3  59 N12       29.50R WCI   2
SALIDA         PTSUNNY   33  10  36 W17       29.60R WCI  23
SUNLIGHT       CLOUDY   N/A N/A N/A MISG      29.59R
WILKERSON PASS PTSUNNY   16   1  53 W8        29.50S WCI   5
$$

COZ069>075-242300-
...SAN LUIS VALLEY/SANGRE DE CRISTO MOUNTAINS...

CITY           SKY/WX    TMP DP  RH WIND       PRES   REMARKS
ALAMOSA        LGT SNOW  23  19  85 VRB5      29.59R FOG     WCI  17
LA VETA PASS   PTSUNNY   19  14  79 NE23G37   29.48R WCI   2
SAGUACHE       FAIR      30  12  47 NW12      29.55S WCI  21
$$

COZ035-036-038>040-242300-
...NORTHERN COLORADO FRONT RANGE...

CITY           SKY/WX    TMP DP  RH WIND       PRES   REMARKS
DENVER INTL AP CLOUDY    24  18  77 N15       29.61R WCI  11
DMNS CITY PARK   N/A     26  21  79 NE6       29.63R WCI  20
AURORA         CLOUDY    24  23  97 NE9       29.62R WCI  14
FRONT RANGE AP CLOUDY    27  21  80 N14       29.62R WCI  15
ERIE MUNI ARPT CLOUDY    28  21  76 NE5       29.64R WCI  23
BOULDER MUN AP CLOUDY    27  25  93 CALM      29.63R
CENTENNIAL     CLOUDY    24  20  84 N8        29.60R WCI  15
BROOMFIELD     CLOUDY    27  25  93 N3        29.62R
FORT COLLINS     N/A     28  21  75 MISG        N/A
LONGMONT       LGT SNOW  30  25  81 NE3       29.66R
$$

COZ041-046-047-076>085-087-088-242300-
...PIKES PEAK/PALMER DIVIDE AND SOUTHERN FOOTHILLS...

CITY           SKY/WX    TMP DP  RH WIND       PRES   REMARKS
COLO. SPRINGS  PTSUNNY   31  19  61 N16       29.53R WCI  20
A. F. ACADEMY  CLOUDY    26  20  79 N22       29.53R WCI  11
SCHRIEVER AFB  FAIR      29  20  69 N22G29    29.53R WCI  15
ELLICOTT       FAIR     N/A N/A N/A N22       29.53R
FALCON         FAIR      28  19  68 N24G31    29.52R WCI  14
FORT CARSON    PTSUNNY   33  20  61 N15       29.52R WCI  22
LIMON          CLOUDY    25  20  81 N23G32    29.57R WCI  10
MONUMENT HILL  CLOUDY    21  19  93 N9        29.57R WCI  11
TRINIDAD       PTSUNNY   36  27  69 NE10      29.54R
$$

COZ042>045-048>051-090-091-242300-
...NORTHEAST COLORADO...

CITY           SKY/WX    TMP DP  RH WIND       PRES   REMARKS
GREELEY ARPT   FAIR      26  17  68 NE13      29.67R WCI  15
AKRON          CLOUDY    23  16  74 N22G32    29.61R WCI   8
BURLINGTON     CLOUDY    28  23  81 N20G32    29.57R WCI  15
WRAY           CLOUDY    28  23  80 N24G31    29.60  WCI  14
STERLING       CLOUDY    28  19  69 N23G29    29.64R WCI  14
HOLYOKE        CLOUDY    28  23  80 N24G32    29.61R WCI  14
FORT MORGAN    CLOUDY    26  16  66 N17       29.66R WCI  13
$$

COZ086-089-092>099-242300-
...SOUTHEAST COLORADO...

CITY           SKY/WX    TMP DP  RH WIND       PRES   REMARKS
PUEBLO         CLOUDY    38  23  55 NE7       29.56R
LA JUNTA       FAIR      40  27  59 N16G23    29.58R
LAMAR          CLOUDY    37  26  64 N13       29.57R
SPRINGFIELD      N/A     35  34  96 N21G28    29.55R WCI  24
$$




USA.gov is the U.S. government's official web portal to all federal, state and local government web resources and services.